Weather History for Nashua, NH

Change the Weather History Date:

Friday, December 13, 2013

  Actual Average Record
Temperature  
Mean Temperature 20 °F -  
Max Temperature 27 °F 38 °F 64 °F (1984)
Min Temperature 10 °F 18 °F -2 °F (1988)
Degree Days  
Heating Degree Days 46    
Moisture  
Dew Point 8 °F    
Average Humidity 63    
Maximum Humidity 75    
Minimum Humidity 53    
Precipitation  
Precipitation 0.00 in - - ()
Sea Level Pressure  
Sea Level Pressure 30.60 in    
Wind  
Wind Speed 5 mph (NW)    
Max Wind Speed 13 mph    
Max Gust Speed 20 mph    
Visibility 10 miles    
Events      
Averages and records for this station are not official NWS values.
T = Trace of Precipitation, MM = Missing Value Source: NWS Daily Summary

Daily Weather History Graph

Daily Weather History Graph

Search for Another Location

Airport:

Trip Planner

Search our weather history database for the weather conditions in past years. The results will help you decide how hot, cold, wet, or windy it might be!

Date:

Astronomy

Dec. 13, 2013 Rise Set
Actual Time 7:08 AM EST 4:12 PM EST
Civil Twilight 6:36 AM EST 4:44 PM EST
Nautical Twilight 6:00 AM EST 5:20 PM EST
Astronomical Twilight 5:26 AM EST 5:54 PM EST
Moon 1:56 PM EST (12/13) 3:24 AM EST (12/13)
Length of Visible Light 10h 08m
Length of Day
9h 04m
Waxing Gibbous, 88% of the Moon is Illuminated
Dec 13
Waxing Gibbous
Dec 17
Full
Dec 25
Last Quarter
Jan 1
New
Jan 7
First Quarter

Hourly Weather History & Observations

Time (EST) Temp. Windchill Dew Point Humidity Pressure Visibility Wind Dir Wind Speed Gust Speed Precip Events Conditions
12:51 AM 13.1 °F - 4.1 °F 67% 30.79 in 10.0 mi Calm Calm - N/A   Clear
1:51 AM 17.1 °F 10.0 °F 5.0 °F 59% 30.79 in 10.0 mi Variable 4.6 mph - 0.00 in   Clear
2:51 AM 16.2 °F 10.6 °F 5.0 °F 62% 30.78 in 10.0 mi Variable 3.5 mph - 0.00 in   Clear
3:51 AM 15.1 °F - 5.0 °F 64% 30.75 in 10.0 mi Calm Calm - 0.00 in   Clear
4:51 AM 15.1 °F 6.4 °F 5.0 °F 64% 30.76 in 10.0 mi Variable 5.8 mph - 0.00 in   Clear
5:51 AM 15.1 °F 9.4 °F 5.0 °F 64% 30.76 in 10.0 mi Variable 3.5 mph - 0.00 in   Clear
6:51 AM 15.1 °F - 6.1 °F 68% 30.79 in 10.0 mi Calm Calm - N/A   Clear
7:51 AM 17.1 °F - 6.1 °F 62% 30.80 in 10.0 mi Calm Calm - N/A   Mostly Cloudy
8:51 AM 20.1 °F 13.6 °F 8.1 °F 60% 30.82 in 10.0 mi Variable 4.6 mph - N/A   Clear
9:51 AM 23.0 °F 12.4 °F 10.0 °F 58% 30.82 in 10.0 mi West 10.4 mph 19.6 mph 0.00 in   Clear
10:51 AM 25.2 °F 15.1 °F 12.0 °F 58% 30.81 in 10.0 mi WSW 10.4 mph 18.4 mph 0.00 in   Clear
11:51 AM 26.1 °F 15.6 °F 12.0 °F 55% 30.80 in 10.0 mi West 11.5 mph 17.3 mph 0.00 in   Partly Cloudy
12:51 PM 27.1 °F 18.2 °F 12.0 °F 53% 30.79 in 10.0 mi West 9.2 mph - N/A   Mostly Cloudy
1:51 PM 27.1 °F 17.5 °F 13.1 °F 56% 30.80 in 10.0 mi West 10.4 mph - N/A   Scattered Clouds
2:51 PM 25.2 °F 13.9 °F 17.1 °F 71% 30.84 in 10.0 mi North 12.7 mph - N/A   Mostly Cloudy
2:58 PM 24.8 °F 14.0 °F 17.6 °F 74% 30.06 in 10.0 mi North 11.5 mph - N/A   Mostly Cloudy
3:51 PM 23.0 °F 13.9 °F 16.2 °F 75% 30.89 in 10.0 mi NW 8.1 mph - N/A   Scattered Clouds
4:51 PM 23.0 °F - 13.1 °F 66% 30.93 in 10.0 mi Calm Calm - N/A   Scattered Clouds
5:51 PM 20.1 °F - 11.1 °F 68% 30.97 in 10.0 mi Calm Calm - N/A   Clear
6:51 PM 17.1 °F - 10.0 °F 74% 31.01 in 10.0 mi Calm Calm - N/A   Clear
7:51 PM 18.1 °F 8.9 °F 9.1 °F 68% 31.05 in 10.0 mi NW 6.9 mph - N/A   Clear
8:51 PM 16.2 °F 3.9 °F 5.0 °F 62% 31.09 in 10.0 mi North 10.4 mph - N/A   Partly Cloudy
9:05 PM 15.8 °F 8.6 °F 5.0 °F 62% 30.31 in 10.0 mi North 4.6 mph - N/A   Mostly Cloudy
9:51 PM 13.1 °F 0.9 °F 0.1 °F 56% 31.13 in 10.0 mi North 9.2 mph - N/A   Mostly Cloudy
9:59 PM 12.2 °F -0.2 °F -0.4 °F 57% 30.34 in 10.0 mi North 9.2 mph - N/A   Scattered Clouds
10:51 PM 12.0 °F 0.5 °F -0.9 °F 56% 28.22 in 10.0 mi NNW 8.1 mph - N/A   Clear
11:51 PM 10.0 °F -0.9 °F -2.9 °F 56% 28.25 in 10.0 mi North 6.9 mph - N/A   Mostly Cloudy